DW4362 Weather Reports


time (UTC)temp
F
wind
direction
speed
knots
gust
knots
rain 1hr
in
rain 24hr
in
rain mn
in
humidity
%
barometer
mb
20260509161655 65 276 0.0 1.7 0.65 1.67 1.11 95 1014.1
20260509160155 64 309 0.0 0.0 0.88 1.62 1.06 95 1014.5
20260509154655 64 358 0.0 0.0 0.82 1.50 0.94 95 1014.0
20260509153155 64 212 0.0 2.6 0.67 1.35 0.79 95 1014.2
20260509150155 65 343 1.7 4.3 0.09 0.74 0.18 95 1013.5
20260509144655 66 345 2.6 5.2 0.03 0.68 0.12 95 1012.5
20260509143155 66 330 0.0 0.0 0.05 0.68 0.12 95 1012.3
20260509141655 66 322 0.0 0.0 0.07 0.68 0.12 95 1012.0
20260509140155 66 329 0.0 1.7 0.05 0.65 0.09 95 1011.9
20260509134655 66 358 0.0 1.7 0.05 0.65 0.09 95 1012.0
20260509133155 66 84 0.0 0.0 0.03 0.63 0.07 95 1012.0
20260509131655 66 342 0.0 1.7 0.01 0.61 0.05 95 1012.3
20260509130155 66 124 0.0 1.7 0.00 0.60 0.04 95 1012.0
20260509121655 66 131 0.0 0.0 0.01 0.60 0.04 95 1010.8
20260509120155 66 357 0.0 0.0 0.01 0.60 0.04 95 1010.6
20260509114655 66 111 0.0 1.7 0.00 0.59 0.03 95 1010.6
20260509113155 65 249 0.0 0.0 0.00 0.59 0.03 95 1010.1
20260509111655 65 249 0.0 0.0 0.00 0.59 0.03 95 1009.8
20260509110155 65 249 0.0 0.0 0.00 0.59 0.03 95 1010.1
20260509104655 65 249 0.0 0.0 0.00 0.59 0.03 95 1008.9
20260509103155 65 249 0.0 0.0 0.00 0.59 0.03 95 1008.6
20260509101655 65 248 0.0 0.0 0.00 0.59 0.03 95 1008.8
20260509100154 65 250 0.0 0.0 0.00 0.59 0.03 95 1009.5
20260509093154 65 142 0.0 2.6 0.01 0.59 0.03 95 1008.6
20260509091653 65 117 1.7 1.7 0.02 0.59 0.03 95 1009.3
20260509090153 65 13 0.0 0.0 0.02 0.59 0.03 95 1011.2
20260509084653 65 13 0.0 0.0 0.02 0.59 0.03 95 1011.6
20260509081652 65 153 0.0 0.0 0.01 0.57 0.01 95 1011.3
20260509080152 65 153 0.0 0.0 0.01 0.57 0.01 94 1010.8
20260509074652 65 153 0.0 0.0 0.01 0.57 0.01 95 1010.8
20260509073152 65 153 0.0 0.0 0.00 0.56 0.00 94 1010.8
20260509071652 65 153 0.0 0.0 0.00 0.56 0.00 94 1010.9
20260509070151 65 153 0.0 0.0 0.00 0.56 0.00 94 1010.8
20260509064652 65 153 0.0 0.0 0.00 0.56 0.00 94 1011.2
20260509063152 65 153 0.0 0.0 0.00 0.56 0.00 94 1011.1
20260509061651 65 153 0.0 0.0 0.00 0.56 0.00 94 1011.2
20260509060152 65 153 0.0 0.0 0.00 0.56 0.00 94 1011.2
20260509054652 65 153 0.0 0.0 0.00 0.56 0.00 94 1011.7
20260509053152 66 152 0.0 0.0 0.00 0.56 0.00 94 1011.6
20260509050151 66 152 0.0 0.0 0.00 0.56 0.00 94 1011.8
20260509044651 66 26 0.0 0.0 0.00 0.56 0.56 94 1011.6
20260509043152 66 268 0.0 0.0 0.00 0.56 0.56 94 1011.6
20260509040151 66 144 1.7 5.2 0.01 0.56 0.56 94 1009.9
20260509031651 66 1 0.0 1.7 0.02 0.55 0.55 94 1011.7
20260509030151 66 176 2.6 2.6 0.04 0.55 0.55 94 1011.4
20260509024650 66 118 0.0 7.8 0.04 0.55 0.55 94 1011.0
20260509023150 65 134 0.0 1.7 0.03 0.54 0.54 94 1012.2
20260509020149 65 214 4.3 4.3 0.02 0.51 0.51 94 1013.2
20260509014649 65 237 0.0 7.0 0.02 0.51 0.51 94 1012.7
20260509013149 65 164 2.6 2.6 0.03 0.51 0.51 95 1012.6
20260509011649 65 233 0.0 0.0 0.02 0.50 0.50 95 1012.3
20260509004649 65 141 1.7 2.6 0.01 0.49 0.49 95 1012.2
20260509003149 65 158 0.0 1.7 0.00 0.48 0.48 95 1012.0
20260509000148 65 128 0.0 0.0 0.00 0.48 0.48 95 1011.8
20260508234648 65 68 0.0 1.7 0.02 0.48 0.48 95 1011.9
20260508233148 66 236 0.0 0.0 0.02 0.48 0.48 95 1012.6
20260508231648 66 359 2.6 2.6 0.04 0.48 0.48 95 1013.1
20260508230148 66 20 0.0 0.0 0.05 0.48 0.48 95 1013.7
20260508224648 66 1 0.0 1.7 0.05 0.46 0.46 95 1014.2
20260508221648 67 311 0.0 0.0 0.04 0.44 0.44 95 1014.4
20260508220148 67 328 0.0 0.0 0.03 0.43 0.43 95 1014.4
20260508213148 68 307 0.0 0.0 0.01 0.41 0.41 95 1013.3
20260508211648 68 307 0.0 0.0 0.00 0.40 0.40 95 1013.2
20260508204648 68 227 0.0 0.0 0.00 0.40 0.40 95 1013.0
20260508203148 68 211 0.0 0.0 0.01 0.40 0.40 95 1012.9
20260508201648 67 342 0.0 0.0 0.06 0.40 0.40 95 1012.8
20260508200148 68 99 0.0 0.0 0.37 0.40 0.40 95 1013.0
20260508194648 67 195 0.0 0.0 0.38 0.40 0.40 95 1013.1
20260508193148 67 167 0.0 0.0 0.38 0.39 0.39 95 1013.9
20260508191648 68 346 0.0 4.3 0.34 0.34 0.34 94 1014.0
20260508190148 69 235 0.0 0.0 0.03 0.03 0.03 93 1012.8
20260508183148 72 102 0.0 0.0 0.01 0.01 0.01 89 1012.7
20260508181649 72 160 0.0 0.0 0.00 0.00 0.00 85 1013.1
20260508180148 73 167 0.0 0.0 0.00 0.00 0.00 82 1012.9
20260508174648 73 250 0.0 0.0 0.00 0.00 0.00 82 1012.9
20260508173148 74 236 0.0 0.0 0.00 0.01 0.00 81 1013.1
20260508171648 74 110 1.7 1.7 0.00 0.02 0.00 82 1013.1
20260508170147 73 243 0.0 2.6 0.00 0.03 0.00 81 1013.4
20260508164647 73 191 2.6 2.6 0.00 0.12 0.00 82 1013.8
20260508163147 72 344 0.0 0.0 0.00 0.16 0.00 82 1014.1